Content
SEND FEEDBACK

Daily
Averages
Monthly
Summary
Mexico

PUEBLA - JARDINES DE SAN MANUEL, PUEBLA


Home > North America > Mexico > Puebla
Elevation: 6962 feet     Latitude: 19 00N     Longitude: 098 11W

WEATHER
 
SELECT A DAY
Number of Records: 120,769;   Date Range: 1/1/95 - 7/11/14
 
SHARE

PRINT THIS DATA

[ ← Previous Day ]
WEATHER ALMANAC - FEBRUARY 25, 2013
[ Next Day → ]
[ °C ]   °F
Weather ElementAverageHighLow
Temperature64.8 °F76 °F (2:59 pm)41 °F (6:43 am)
Dewpoint32.1 °F42 °F (11:50 am)28.4 °F (6:43 am)
Humidity28 %61 % (6:43 am)14 % (2:59 pm)
Barometer30.01 in30.21 in (9:45 am)29.53 in (8:55 pm)
Wind Speed8.1 mph24.2 mph (2:48 pm)
Weather ElementAverage
Visibility9.4 mi
Wind DirectionSSE (159.2 °)

Weather ElementTotal
Precipitation---
Heating Degree Days6.5 (Base 65)
Growing Degree Days8.5 (Base 50)
Averaged from 24 records on February 25, 2013
WEATHER CONDITIONS BREAKOUT
WIND DIRECTION BREAKOUT
WEATHER BY HOUR - FEBRUARY 25, 2013
[ °C ]   °F
Local TimeTemperatureDewpointHumidityBarometerVisibilityWind DirectionWind SpeedGust SpeedPrecipitationEventsConditions
5:56 AM50.0 °F29.0 °F32 %29.73 in3.0 miWNW (300°)2.2 mph
6:43 AM41.0 °F28.4 °F61 %30.18 in8.0 miNNW (330°)3.5 mphScattered Clouds
7:46 AM50.0 °F30.2 °F47 %30.19 in10.0 miCalmPartly Cloudy
8:50 AM62.0 °F39.0 °F31 %29.80 in12.0 miENE (60°)2.2 mphClear
8:54 AM59.0 °F28.4 °F31 %30.20 in10.0 miNorth (360°)4.6 mphPartly Cloudy
9:45 AM62.6 °F32.0 °F32 %30.21 in10.0 miSouth (170°)4.6 mphClear
10:48 AM66.2 °F32.0 °F28 %30.20 in10.0 miSSE (160°)6.9 mphClear
11:50 AM74.0 °F42.0 °F21 %29.76 in12.0 miSouth (180°)4.5 mphClear
11:50 AM71.6 °F28.4 °F20 %30.17 in10.0 miSouth (180°)17.3 mphClear
12:48 PM73.4 °F35.6 °F25 %30.14 in10.0 miSSE (150°)17.3 mphScattered Clouds
1:49 PM73.4 °F32.0 °F22 %30.11 in10.0 miSouth (180°)20.7 mphMostly Cloudy
2:48 PM73.4 °F28.4 °F19 %30.09 in10.0 miSouth (180°)24.2 mphMostly Cloudy
2:59 PM76.0 °F36.0 °F14 %29.62 in12.0 miSouth (180°)6.7 mphClear
3:42 PM75.2 °F30.2 °F19 %30.08 in10.0 miSouth (170°)16.1 mphMostly Cloudy
4:47 PM73.4 °F30.2 °F20 %30.08 in10.0 miSouth (190°)21.9 mphMostly Cloudy
5:40 PM73.0 °F33.0 °F14 %29.55 in12.0 miSSE (160°)4.5 mphHaze
5:40 PM69.8 °F32.0 °F25 %30.09 in10.0 miSouth (170°)10.4 mphMostly Cloudy
6:42 PM66.2 °F32.0 °F28 %30.11 in10.0 miSE (140°)10.4 mphOvercast
7:42 PM59.0 °F32.0 °F36 %30.13 in10.0 miSE (130°)6.9 mphScattered Clouds
8:46 PM59.0 °F33.8 °F39 %30.16 in10.0 miWSW (250°)5.8 mphPartly Cloudy
8:55 PM67.0 °F31.0 °F15 %29.53 in3.0 miESE (120°)2.2 mph
9:42 PM59.0 °F33.8 °F39 %30.17 in10.0 miCalmPartly Cloudy
10:41 PM59.0 °F32.0 °F36 %30.19 in10.0 miCalmPartly Cloudy
11:58 PM62.0 °F29.0 °F17 %29.63 in3.0 miENE (60°)2.2 mph
Hourly data recorded from MMPB, located miles away from Puebla - Jardines de San Manuel, Puebla







STORIES FROM OUR PARTNERS